Wind_Speed
39 36 37 36 31 32 33 34 39 38 41 38 36 33 28 22 14 8 5 5 3 1 9 8 5 4 7 6 4 5 8 14 26 22 30 39 37 39 35 34 38 42 47
36 35 34 28 29 32 31 34 36 37 39 35 33 28 24 15 8 2 1 3 0 3 6 9 7 7 5 7 7 6 7 13 23 29 31 38 38 40 35 33 38 43 48
34 33 26 26 28 26 30 34 34 37 36 31 27 25 15 8 3 5 5 4 3 11 16 13 8 6 5 9 10 9 10 14 18 28 32 37 37 38 37 33 38 44 51
30 24 23 24 21 24 29 31 34 34 29 25 24 14 7 7 8 10 8 2 5 11 16 21 9 6 6 7 9 9 11 17 22 25 32 37 35 34 35 34 40 44 48
24 22 25 20 20 27 28 30 31 27 24 21 16 6 4 9 14 12 10 8 10 9 2 3 12 5 4 9 7 8 14 19 23 30 33 35 36 38 38 38 39 38 41
20 23 24 20 22 26 26 30 25 22 19 15 11 5 12 14 16 19 18 13 14 11 11 11 8 3 2 5 4 6 13 19 25 29 34 41 43 43 45 43 40 35 38
22 22 19 19 24 25 26 26 20 19 16 13 11 5 13 18 20 25 20 16 14 13 13 16 11 2 1 4 5 9 17 23 28 32 42 47 48 45 45 53 51 42 40
24 19 15 19 24 23 25 22 18 17 11 11 10 7 17 24 26 26 20 18 18 20 20 20 21 12 4 8 10 11 21 28 36 40 42 46 39 40 39 40 38 39 37
25 16 15 17 19 23 24 20 16 13 11 11 6 16 23 29 29 28 22 20 22 19 19 20 21 21 11 12 17 17 27 34 39 41 37 39 47 42 39 37 36 38 38
18 13 13 16 19 23 24 18 14 12 12 10 6 23 29 34 32 27 24 23 21 22 23 22 22 22 17 16 22 25 28 35 40 37 40 44 47 44 42 32 33 35 32
18 12 15 18 21 22 21 13 13 16 10 6 12 27 33 36 33 26 26 24 23 22 22 24 26 27 26 28 28 29 30 37 44 51 47 48 45 40 37 36 34 30 25
15 12 15 19 21 20 15 11 12 16 9 6 25 27 33 36 31 27 25 22 21 23 22 23 24 23 28 34 37 37 38 44 48 41 41 39 38 35 32 27 24 25 19
14 12 15 18 20 18 11 11 13 18 9 9 27 28 33 35 32 29 25 23 22 21 22 19 18 18 19 24 27 31 33 38 37 37 34 32 28 27 26 24 19 16 14
14 12 15 18 20 13 9 11 14 19 11 10 28 26 34 37 33 32 29 25 23 24 22 22 13 14 16 21 23 26 29 30 30 29 27 24 25 23 22 21 19 16 13
15 14 14 17 16 9 6 8 15 18 13 10 26 27 34 38 33 32 31 27 25 24 20 15 15 20 17 14 11 14 16 16 21 22 21 19 18 18 17 17 17 17 12
15 16 14 13 11 8 7 6 12 16 14 12 25 29 33 37 32 34 32 29 28 25 22 16 19 20 17 16 14 13 13 16 15 18 19 17 13 13 12 13 16 10 15
15 14 13 10 9 6 6 5 8 14 12 12 25 33 28 32 30 32 33 29 27 24 22 19 19 20 18 15 13 11 9 7 8 9 11 13 15 18 14 16 18 24 28
14 12 11 10 8 6 6 8 7 12 10 17 27 31 25 22 30 31 27 30 27 24 23 26 26 21 21 17 20 18 16 15 15 15 20 21 20 17 16 17 19 20 24
12 11 7 7 6 6 5 7 13 11 9 21 29 28 22 22 26 25 32 32 32 33 27 25 25 26 25 23 23 21 22 20 22 20 20 21 20 20 20 22 26 29 28
8 10 7 2 2 3 7 6 11 15 14 23 31 25 18 16 15 23 28 28 31 33 30 31 29 30 29 27 24 26 27 24 22 23 23 22 19 20 22 22 25 27 27
10 10 8 5 1 1 3 7 8 16 16 21 28 24 20 17 13 11 15 20 21 23 26 25 24 24 20 21 22 24 24 22 18 18 23 26 29 30 32 31 32 31 32
16 11 8 8 7 4 4 4 8 11 15 18 25 26 23 21 18 18 18 19 20 22 22 23 23 22 22 20 21 20 20 19 21 23 22 22 21 19 19 21 24 26 27
24 16 10 5 8 8 7 6 7 10 13 15 18 19 21 21 19 19 19 21 24 23 23 22 23 25 21 24 26 24 23 24 24 20 16 12 8 8 10 11 13 17 20
25 26 18 12 7 8 10 11 10 9 10 12 14 15 16 17 17 18 20 23 25 28 29 30 30 30 31 30 31 31 30 28 24 20 16 15 16 14 13 12 14 17 16
27 25 25 23 18 11 9 10 11 11 10 8 8 9 8 7 7 7 6 9 16 17 18 21 22 22 23 25 27 28 28 26 26 25 22 21 19 18 17 16 15 17 20
31 28 25 28 25 22 20 15 12 11 10 11 11 11 11 11 11 10 11 10 9 9 10 12 16 20 22 23 22 22 24 25 25 25 23 21 23 24 26 26 26 27 29
Wind_Direction
264 266 273 281 290 287 290 293 297 297 304 300 301 300 304 303 299 294 303 334 21 310 5 349 305 286 250 236 218 254 231 208 202 189 193 192 191 192 189 190 190 185 183
260 269 276 282 282 284 290 298 295 300 301 299 298 304 305 296 290 241 59 82 173 295 10 340 326 318 282 235 227 194 226 222 200 197 193 191 192 193 190 189 190 183 181
261 269 274 272 278 286 296 295 297 300 296 296 298 304 296 285 188 151 165 166 208 55 12 311 338 319 289 256 231 208 215 208 211 187 190 190 190 192 192 191 187 181 180
262 264 263 266 282 297 296 298 301 297 291 290 301 306 294 185 166 155 136 114 148 76 27 358 342 345 298 213 224 235 201 197 203 189 184 183 188 189 182 180 180 179 180
254 257 257 262 284 291 296 302 299 292 286 292 311 287 192 175 161 140 142 133 101 99 230 318 305 320 284 229 245 208 202 199 184 174 172 173 165 164 167 168 168 172 175
240 250 257 268 286 295 303 304 294 287 281 298 315 265 172 166 150 147 121 101 83 65 47 5 353 343 265 251 246 182 169 175 171 165 161 153 151 155 154 153 151 157 169
247 244 265 275 287 299 302 300 291 273 274 309 316 285 170 162 151 135 118 108 87 75 57 58 44 349 287 213 146 130 148 162 162 158 152 150 155 158 152 155 157 163 167
237 242 268 278 291 301 300 294 284 262 268 296 293 216 177 162 154 140 123 116 108 104 84 70 57 58 112 160 154 145 138 146 147 147 149 158 155 146 149 154 161 163 165
235 238 269 287 298 302 298 289 278 249 257 290 258 186 174 161 156 144 134 131 124 110 97 83 67 53 79 131 150 153 144 144 145 145 144 144 143 140 139 139 145 154 158
229 247 268 292 301 299 297 281 267 233 242 284 223 182 170 163 159 147 143 137 133 119 110 96 83 68 68 124 135 142 152 148 143 135 135 141 145 142 141 144 150 152 160
222 251 272 289 296 299 294 278 257 232 241 286 189 174 173 170 162 157 152 138 131 129 122 109 97 89 92 101 114 125 131 136 136 128 128 134 141 145 146 148 153 160 164
222 256 277 291 295 296 281 275 257 226 230 210 173 175 175 175 166 163 158 152 140 137 126 116 109 99 104 103 101 108 118 128 135 129 132 135 136 140 145 150 160 166 168
223 257 284 290 293 290 276 275 245 218 208 185 177 181 182 179 175 170 163 163 159 149 137 121 124 119 106 117 116 110 112 127 127 126 128 134 140 150 157 161 165 176 182
233 260 283 288 292 280 269 264 226 213 213 184 182 181 182 181 176 171 164 159 161 159 147 132 128 127 133 124 123 124 130 135 141 147 154 156 160 164 169 178 183 186 205
232 259 279 284 288 263 255 240 211 209 212 201 186 183 181 182 177 176 170 165 168 168 172 175 172 161 153 146 143 144 146 143 154 152 155 159 166 170 180 187 198 210 213
241 258 278 285 270 236 233 212 206 203 209 209 189 185 185 185 186 186 182 184 182 185 186 184 166 161 150 151 134 148 165 161 157 167 168 171 188 208 224 231 222 219 242
235 256 265 271 262 226 211 197 214 205 208 211 188 182 180 189 192 201 199 196 198 199 206 191 174 174 162 157 166 178 180 188 189 213 231 239 237 238 243 235 231 233 239
234 250 253 251 252 212 187 170 185 203 209 187 180 184 188 191 199 197 202 203 198 201 209 198 184 186 197 195 203 210 219 240 231 241 245 251 249 249 241 234 234 243 241
239 235 240 248 240 198 168 175 182 176 183 176 177 183 181 185 190 197 202 205 209 211 215 211 204 207 210 216 222 228 232 243 238 243 236 234 242 239 232 243 243 247 254
219 223 224 264 203 175 182 168 181 179 180 180 174 175 178 181 200 210 212 216 217 222 223 224 230 230 240 237 232 233 241 240 243 235 236 230 232 243 251 257 250 250 251
204 215 203 199 134 144 142 165 167 193 178 180 188 187 178 182 182 170 184 206 209 216 224 220 221 219 223 227 230 229 229 223 221 232 237 245 249 254 264 263 255 250 251
206 191 211 208 160 141 126 144 166 172 192 182 192 199 201 205 215 213 212 210 209 212 217 219 221 224 234 233 223 222 226 236 242 258 263 254 254 259 259 255 252 249 250
212 213 190 208 206 174 168 160 155 162 172 188 198 202 208 211 208 207 212 214 214 216 219 223 225 227 228 226 222 238 247 255 261 255 243 224 234 255 261 259 250 257 261
222 219 217 194 204 225 200 185 188 184 176 177 180 191 196 203 212 216 217 218 220 223 227 230 231 231 230 231 233 238 243 245 235 221 217 225 234 242 244 252 250 250 253
221 220 222 231 218 207 233 217 208 198 197 197 200 202 206 214 221 225 240 237 231 233 235 235 233 234 236 239 240 241 241 233 219 215 227 234 243 258 271 265 274 273 271
220 221 221 222 228 223 216 221 243 245 236 223 226 229 226 228 235 235 231 227 223 226 231 236 237 236 235 235 238 235 232 229 228 234 244 261 276 282 284 291 293 292 289
Height
10676 10676 10676 10675 10672 10669 10665 10662 10658 10652 10647 10641 10636 10631 10626 10621 10618 10614 10612 10610 10610 10609 10606 10604 10601 10599 10596 10594 10594 10593 10593 10594 10597 10600 10604 10612 10619 10627 10633 10640 10648 10659 10669
10667 10667 10668 10667 10665 10662 10659 10655 10650 10645 10639 10634 10630 10626 10620 10616 10613 10611 10610 10611 10611 10608 10606 10604 10600 10598 10595 10594 10592 10591 10592 10592 10594 10598 10602 10608 10615 10624 10632 10639 10647 10657 10668
10659 10660 10660 10660 10658 10655 10652 10648 10643 10638 10633 10628 10625 10620 10615 10612 10611 10611 10611 10611 10610 10608 10607 10604 10600 10596 10594 10592 10590 10589 10590 10592 10592 10595 10599 10606 10614 10622 10630 10636 10644 10654 10664
10652 10654 10654 10653 10651 10649 10646 10641 10637 10632 10627 10624 10621 10614 10612 10611 10611 10612 10611 10611 10609 10606 10606 10604 10600 10596 10592 10591 10589 10587 10587 10589 10590 10593 10598 10604 10612 10620 10628 10635 10643 10652 10662
10646 10648 10647 10645 10645 10643 10639 10634 10630 10626 10623 10620 10616 10612 10610 10611 10611 10611 10611 10611 10608 10607 10606 10605 10600 10596 10592 10590 10588 10586 10585 10586 10589 10592 10597 10604 10612 10621 10629 10636 10646 10658 10666
10640 10641 10641 10640 10639 10636 10631 10627 10624 10621 10619 10617 10613 10610 10610 10610 10611 10612 10612 10612 10610 10608 10606 10603 10599 10596 10593 10591 10589 10586 10585 10588 10592 10595 10601 10609 10617 10623 10631 10641 10652 10661 10668
10635 10634 10635 10634 10632 10629 10625 10622 10619 10616 10615 10613 10610 10608 10608 10610 10612 10612 10612 10614 10613 10611 10609 10605 10601 10597 10594 10593 10592 10589 10588 10590 10594 10600 10608 10614 10622 10628 10635 10643 10650 10661 10672
10628 10629 10629 10628 10625 10623 10620 10617 10614 10613 10613 10611 10608 10606 10607 10609 10613 10613 10614 10615 10615 10613 10612 10609 10606 10601 10596 10595 10595 10594 10594 10595 10598 10605 10613 10621 10628 10636 10644 10652 10660 10668 10675
10623 10623 10623 10622 10619 10618 10615 10612 10611 10610 10610 10608 10605 10605 10606 10610 10613 10614 10615 10616 10616 10616 10615 10613 10610 10607 10601 10598 10597 10599 10600 10602 10605 10611 10618 10627 10636 10644 10652 10659 10664 10672 10679
10618 10619 10618 10616 10614 10613 10611 10609 10608 10607 10607 10605 10602 10603 10606 10611 10614 10615 10617 10618 10619 10619 10619 10617 10616 10612 10608 10604 10603 10604 10606 10609 10615 10621 10625 10633 10641 10650 10657 10664 10673 10679 10684
10614 10614 10613 10612 10610 10609 10607 10606 10604 10604 10604 10601 10600 10603 10607 10611 10615 10617 10620 10621 10622 10623 10624 10623 10622 10621 10617 10614 10611 10611 10614 10618 10622 10628 10633 10641 10648 10655 10662 10669 10676 10682 10687
10609 10609 10608 10607 10606 10604 10603 10602 10601 10602 10602 10600 10601 10603 10607 10612 10616 10619 10621 10623 10625 10627 10628 10628 10629 10629 10629 10626 10625 10623 10625 10629 10634 10637 10643 10650 10655 10661 10667 10673 10678 10683 10687
10605 10605 10604 10603 10601 10599 10598 10598 10598 10600 10600 10599 10601 10603 10607 10612 10617 10620 10622 10625 10627 10630 10631 10632 10633 10635 10636 10636 10636 10637 10638 10641 10644 10649 10654 10659 10663 10667 10671 10676 10681 10685 10687
10601 10601 10601 10599 10597 10595 10594 10594 10595 10597 10597 10598 10600 10603 10607 10612 10616 10620 10623 10626 10628 10631 10634 10635 10638 10639 10642 10643 10644 10646 10648 10651 10654 10657 10661 10664 10667 10671 10674 10678 10681 10684 10686
10597 10598 10598 10596 10594 10592 10591 10591 10592 10594 10596 10597 10600 10603 10607 10612 10616 10620 10623 10626 10629 10632 10635 10637 10639 10642 10644 10647 10648 10651 10653 10656 10659 10662 10665 10668 10671 10673 10676 10678 10680 10682 10683
10594 10595 10594 10593 10591 10590 10589 10588 10588 10591 10593 10595 10597 10600 10606 10611 10615 10619 10623 10625 10628 10632 10635 10637 10640 10643 10645 10648 10650 10653 10656 10658 10661 10664 10666 10668 10671 10673 10675 10676 10678 10679 10681
10591 10592 10592 10591 10589 10587 10587 10586 10586 10588 10590 10592 10595 10600 10605 10610 10614 10618 10621 10625 10629 10632 10635 10637 10639 10643 10646 10648 10651 10654 10657 10659 10662 10664 10666 10667 10669 10670 10671 10672 10672 10673 10674
10589 10590 10590 10589 10586 10584 10584 10584 10585 10587 10588 10589 10594 10599 10604 10608 10612 10616 10620 10624 10628 10630 10632 10635 10637 10641 10644 10648 10650 10652 10655 10656 10658 10660 10661 10662 10663 10664 10664 10665 10666 10667 10668
10586 10587 10587 10586 10585 10583 10583 10583 10584 10586 10587 10589 10594 10598 10601 10605 10608 10612 10616 10620 10624 10627 10630 10634 10636 10639 10641 10644 10646 10648 10650 10652 10654 10655 10656 10657 10657 10658 10659 10660 10661 10661 10661
10584 10585 10585 10585 10584 10583 10583 10582 10584 10586 10588 10590 10594 10598 10602 10606 10608 10610 10613 10616 10620 10623 10626 10629 10632 10635 10637 10639 10641 10643 10645 10646 10648 10649 10650 10651 10652 10653 10653 10653 10654 10654 10655
10583 10583 10583 10584 10584 10584 10584 10584 10584 10586 10588 10591 10595 10598 10600 10604 10607 10609 10611 10614 10617 10620 10623 10625 10628 10630 10632 10634 10636 10638 10639 10641 10643 10644 10645 10646 10646 10646 10646 10646 10646 10647 10647
10581 10582 10582 10582 10582 10583 10584 10585 10585 10586 10588 10590 10593 10596 10598 10601 10603 10606 10609 10612 10614 10617 10619 10621 10624 10626 10628 10629 10631 10633 10635 10637 10638 10639 10639 10639 10639 10639 10638 10638 10638 10639 10640
10576 10579 10580 10581 10581 10581 10583 10585 10587 10587 10587 10589 10591 10593 10595 10597 10599 10602 10604 10606 10609 10611 10614 10616 10618 10621 10622 10624 10627 10629 10631 10632 10633 10633 10634 10634 10634 10634 10633 10633 10633 10633 10633
10571 10574 10577 10578 10580 10581 10582 10583 10585 10587 10587 10588 10589 10591 10593 10594 10596 10598 10599 10600 10602 10604 10606 10608 10611 10613 10615 10617 10619 10620 10622 10623 10624 10626 10627 10627 10628 10628 10627 10627 10627 10626 10626
10566 10569 10571 10574 10577 10578 10580 10582 10583 10585 10587 10589 10590 10591 10593 10594 10595 10597 10599 10599 10600 10602 10604 10605 10606 10607 10609 10610 10612 10614 10616 10617 10619 10620 10621 10621 10622 10622 10623 10623 10623 10623 10622
10559 10562 10565 10568 10571 10574 10576 10578 10581 10583 10585 10586 10588 10589 10589 10590 10592 10594 10595 10597 10598 10600 10601 10602 10603 10604 10604 10605 10606 10609 10611 10613 10615 10617 10618 10618 10617 10617 10617 10617 10617 10616 10615